TimeEDT,TemperatureF,Dew PointF,Humidity,Sea Level PressureIn,VisibilityMPH,Wind Direction,Wind SpeedMPH,Gust SpeedMPH,PrecipitationIn,Events,Conditions,WindDirDegrees,DateUTC
12:13 AM,51.3,45.3,80,30.04,10.0,North,4.6,-,N/A,,Scattered Clouds,350,2013-06-18 04:13:00
12:34 AM,51.3,45.0,79,30.04,10.0,North,3.5,-,N/A,,Scattered Clouds,350,2013-06-18 04:34:00
12:54 AM,49.3,44.8,84,30.03,10.0,NNW,3.5,-,N/A,,Clear,330,2013-06-18 04:54:00
1:13 AM,48.2,44.8,88,30.04,10.0,NNW,8.1,-,N/A,,Scattered Clouds,340,2013-06-18 05:13:00
1:34 AM,50.2,43.3,77,30.05,10.0,North,8.1,-,N/A,,Scattered Clouds,350,2013-06-18 05:34:00
1:54 AM,50.0,43.5,78,30.04,10.0,NNW,4.6,-,N/A,,Clear,340,2013-06-18 05:54:00
2:13 AM,48.4,43.7,84,30.04,10.0,Calm,Calm,-,N/A,,Clear,0,2013-06-18 06:13:00
2:34 AM,46.8,43.7,89,30.04,10.0,North,4.6,-,N/A,,Clear,350,2013-06-18 06:34:00
2:54 AM,45.9,43.7,92,30.05,10.0,North,6.9,-,N/A,,Clear,350,2013-06-18 06:54:00
3:13 AM,46.0,43.9,92,30.05,10.0,North,5.8,-,N/A,,Clear,350,2013-06-18 07:13:00
3:34 AM,45.9,43.7,92,30.05,10.0,North,6.9,-,N/A,,Clear,10,2013-06-18 07:34:00
3:54 AM,46.0,43.7,92,30.05,10.0,NNE,6.9,-,N/A,,Clear,20,2013-06-18 07:54:00
4:14 AM,45.9,43.7,92,30.05,10.0,North,4.6,-,N/A,,Clear,10,2013-06-18 08:14:00
4:33 AM,45.5,43.5,93,30.05,10.0,NNE,6.9,-,N/A,,Clear,20,2013-06-18 08:33:00
4:54 AM,46.4,44.6,93,30.05,10.0,NE,5.8,-,N/A,,Clear,40,2013-06-18 08:54:00
5:14 AM,46.9,45.0,93,30.06,10.0,NE,5.8,-,N/A,,Clear,40,2013-06-18 09:14:00
5:33 AM,47.8,45.1,90,30.07,10.0,NE,8.1,-,N/A,,Clear,40,2013-06-18 09:33:00
5:54 AM,49.3,46.4,90,30.07,10.0,NE,9.2,-,N/A,,Clear,50,2013-06-18 09:54:00
6:14 AM,50.4,45.7,84,30.08,10.0,NE,12.7,-,N/A,,Clear,50,2013-06-18 10:14:00
6:34 AM,51.3,45.5,81,30.08,10.0,ENE,10.4,-,N/A,,Clear,70,2013-06-18 10:34:00
6:54 AM,52.2,46.4,81,30.09,10.0,NE,10.4,-,N/A,,Clear,50,2013-06-18 10:54:00
7:14 AM,53.2,46.2,77,30.09,10.0,NE,10.4,-,N/A,,Clear,50,2013-06-18 11:14:00
7:34 AM,53.6,45.7,75,30.10,10.0,NE,10.4,-,N/A,,Clear,50,2013-06-18 11:34:00
7:53 AM,54.0,45.7,74,30.10,10.0,NE,9.2,-,N/A,,Clear,40,2013-06-18 11:53:00
8:14 AM,55.0,44.8,68,30.11,10.0,NE,9.2,-,N/A,,Clear,50,2013-06-18 12:14:00
8:34 AM,55.8,43.7,64,30.11,10.0,ENE,9.2,-,N/A,,Clear,60,2013-06-18 12:34:00
8:53 AM,57.2,44.4,62,30.12,10.0,NE,6.9,-,N/A,,Clear,50,2013-06-18 12:53:00
9:14 AM,57.4,42.4,57,30.12,10.0,ENE,9.2,-,N/A,,Clear,70,2013-06-18 13:14:00
9:34 AM,58.3,42.4,56,30.13,10.0,ENE,8.1,-,N/A,,Clear,60,2013-06-18 13:34:00
9:53 AM,58.5,40.6,52,30.13,10.0,ENE,9.2,-,N/A,,Clear,70,2013-06-18 13:53:00
10:14 AM,59.0,40.6,51,30.13,10.0,East,6.9,-,N/A,,Clear,80,2013-06-18 14:14:00
10:34 AM,60.1,40.3,48,30.13,10.0,ENE,5.8,-,N/A,,Clear,70,2013-06-18 14:34:00
10:53 AM,61.0,39.9,46,30.14,10.0,East,4.6,-,N/A,,Clear,90,2013-06-18 14:53:00
11:14 AM,61.9,38.1,41,30.14,10.0,East,6.9,-,N/A,,Clear,80,2013-06-18 15:14:00
11:34 AM,62.6,35.6,37,30.13,10.0,East,4.6,-,N/A,,Clear,80,2013-06-18 15:34:00
11:53 AM,63.5,35.8,36,30.13,10.0,ESE,4.6,-,N/A,,Clear,110,2013-06-18 15:53:00
12:14 PM,63.1,34.7,35,30.14,10.0,East,6.9,-,N/A,,Clear,90,2013-06-18 16:14:00
12:34 PM,63.5,34.3,34,30.13,10.0,ESE,4.6,-,N/A,,Clear,120,2013-06-18 16:34:00
12:53 PM,63.9,35.1,34,30.13,10.0,East,8.1,-,N/A,,Clear,100,2013-06-18 16:53:00
1:14 PM,63.9,35.8,35,30.13,10.0,SSE,5.8,-,N/A,,Clear,150,2013-06-18 17:14:00
1:33 PM,63.0,36.1,37,30.12,10.0,SSE,4.6,-,N/A,,Clear,160,2013-06-18 17:33:00
1:54 PM,63.0,35.6,36,30.12,10.0,SSE,9.2,-,N/A,,Clear,150,2013-06-18 17:54:00
2:14 PM,62.8,37.0,38,30.12,10.0,SSE,6.9,-,N/A,,Clear,150,2013-06-18 18:14:00
2:33 PM,63.5,37.0,38,30.11,10.0,SSE,11.5,-,N/A,,Clear,150,2013-06-18 18:33:00
2:54 PM,64.2,34.9,34,30.11,10.0,SSE,10.4,16.1,N/A,,Clear,150,2013-06-18 18:54:00
3:13 PM,65.5,35.6,33,30.10,10.0,SSE,8.1,-,N/A,,Clear,160,2013-06-18 19:13:00
3:34 PM,65.3,34.9,32,30.11,10.0,SSE,9.2,17.3,N/A,,Clear,150,2013-06-18 19:34:00
3:54 PM,65.8,35.2,32,30.10,10.0,SSE,9.2,-,N/A,,Clear,150,2013-06-18 19:54:00
4:13 PM,66.7,37.0,33,30.10,10.0,South,6.9,-,N/A,,Clear,170,2013-06-18 20:13:00
4:34 PM,66.2,37.2,34,30.10,10.0,South,5.8,-,N/A,,Clear,190,2013-06-18 20:34:00
4:54 PM,65.8,36.7,34,30.10,10.0,SSW,8.1,-,N/A,,Clear,200,2013-06-18 20:54:00
5:13 PM,66.0,35.1,32,30.10,10.0,South,4.6,-,N/A,,Clear,170,2013-06-18 21:13:00
5:34 PM,66.0,34.3,31,30.10,10.0,SSW,6.9,-,N/A,,Clear,200,2013-06-18 21:34:00
5:54 PM,66.6,36.0,32,30.10,10.0,SW,5.8,-,N/A,,Clear,220,2013-06-18 21:54:00
6:13 PM,66.4,34.9,31,30.10,10.0,SW,4.6,-,N/A,,Clear,220,2013-06-18 22:13:00
6:34 PM,66.2,35.8,32,30.10,10.0,SW,5.8,-,N/A,,Clear,220,2013-06-18 22:34:00
6:54 PM,66.6,37.9,35,30.10,10.0,SW,3.5,-,N/A,,Clear,220,2013-06-18 22:54:00
7:13 PM,66.2,38.8,37,30.10,10.0,West,4.6,-,N/A,,Clear,260,2013-06-18 23:13:00
7:34 PM,66.2,37.9,35,30.10,10.0,West,5.8,-,N/A,,Clear,280,2013-06-18 23:34:00
7:54 PM,65.5,37.9,36,30.10,10.0,West,5.8,-,N/A,,Clear,280,2013-06-18 23:54:00
8:13 PM,63.7,38.7,40,30.10,10.0,WNW,6.9,-,N/A,,Clear,290,2013-06-19 00:13:00
8:34 PM,61.9,39.0,43,30.11,10.0,WNW,5.8,-,N/A,,Clear,290,2013-06-19 00:34:00
8:54 PM,60.4,41.5,50,30.11,10.0,WNW,5.8,-,N/A,,Clear,290,2013-06-19 00:54:00
9:13 PM,59.9,41.4,50,30.11,10.0,NW,5.8,-,N/A,,Clear,310,2013-06-19 01:13:00
9:34 PM,59.0,41.4,52,30.11,10.0,NW,5.8,-,N/A,,Clear,310,2013-06-19 01:34:00
9:54 PM,56.5,43.7,62,30.11,10.0,NNW,6.9,-,N/A,,Clear,330,2013-06-19 01:54:00
10:14 PM,55.8,43.0,62,30.11,10.0,NNW,4.6,-,N/A,,Clear,340,2013-06-19 02:14:00
10:34 PM,53.8,43.7,69,30.12,10.0,NNE,6.9,-,N/A,,Clear,20,2013-06-19 02:34:00
10:53 PM,54.0,44.1,69,30.12,10.0,NNE,8.1,-,N/A,,Clear,30,2013-06-19 02:53:00
11:14 PM,54.5,43.7,67,30.12,10.0,NNE,5.8,-,N/A,,Clear,30,2013-06-19 03:14:00
11:34 PM,54.5,42.6,64,30.12,10.0,NNE,6.9,-,N/A,,Clear,30,2013-06-19 03:34:00
11:53 PM,52.7,43.2,70,30.11,10.0,NNE,6.9,-,N/A,,Clear,30,2013-06-19 03:53:00